416  
NZUS52 KFFC 232310  
RWROBS  
WEATHER ROUNDUP FOR GEORGIA  
NATIONAL WEATHER SERVICE PEACHTREE CITY GA  
600 PM EST TUE JAN 23 2018  
 
NOTE: "FAIR" INDICATES FEW OR NO CLOUDS BELOW 12,000 FEET WITH NO  
SIGNIFICANT WEATHER AND/OR S TO VISIBILITY
.  
 
* = USE WITH CAUTION. THE STATIONS MARKED WITH AN ASTERISK MAY NOT  
REPORT WEATHER SUCH AS PRECIPITATION, FOG, OR THUNDER AND ARE NOT  
QUALITY CONTROLLED BY NWS.  
 
THE REMARK "TC" DENOTES TEMPERATURE READING IN DEGREES CELSIUS.  
 
GAZ001>058-240000-  
NORTH GEORGIA  
 
CITY SKY/WX TMP DP RH WIND PRES REMARKS
 
ATLANTA FAIR 52 32 46 W13 30.04R  
ATHENS FAIR 51 31 46 W7 30.01R  
CHAMBLEE FAIR 50 29 44 NW14 30.04R  
PEACHTREE CITY FAIR 54 30 40 W6 30.05R  
ROME FAIR 51 32 48 NW9 30.06R  
WEST ATLANTA FAIR 52 31 44 W10 30.05R  
GAINESVILLE FAIR 49 30 48 W13 30.02R  
CARTERSVILLE FAIR 49 32 52 CALM 30.07R  
 
 
CITY SKY/WX TMP DP RH WIND PRES REMARKS
 
DALTON FAIR 50 32 50 NW10G18 30.08R  
LAWRENCEVILLE FAIR 51 30 44 W7 30.03R  
MARIETTA PTCLDY 50 30 46 W12 30.04R  
KENNESAW FAIR 51 30 44 W8 30.05R  
WINDER FAIR 52 30 43 NW8 30.05R  
CANTON FAIR 50 32 50 W9G17 30.04R  
TOCCOA FAIR 55 33 43 W10 29.98R  
CORNELIA FAIR 48 30 48 W10G21 29.99R  
CANON FAIR 53 32 44 W8G20 29.98R  
JASPER FAIR 47 31 54 NW13 30.06R  

 
 
GAZ059>098-102>109-240000-  
CENTRAL GEORGIA  
 
CITY SKY/WX TMP DP RH WIND PRES REMARKS
 
AUGUSTA-BUSH FAIR 59 32 36 W10 29.98R  
AUGUSTA-DANIEL FAIR 60 31 33 VRB6G18 29.99R  
COLUMBUS FAIR 57 30 35 W12 30.06R  
MACON FAIR 58 29 33 W10 30.03R  
ROBINS AFB FAIR 58 29 33 W10 30.03R  
GREENSBORO FAIR 55 32 41 W9 29.98R  
THOMSON FAIR 56 31 39 NW10 30.04R  
SANDERSVILLE FAIR 60 31 33 W7 30.00R  
THOMASTON FAIR 52 28 40 NW7 30.06R  
BUTLER N/A 56 30 36 W6 30.05R  
 
 
CITY SKY/WX TMP DP RH WIND PRES REMARKS
 
LAGRANGE FAIR 53 34 47 NW10 30.07R  
SYLVANIA FAIR 62 34 34 W8 29.99R  
MILLEDGEVILLE FAIR 57 32 38 W6 30.02R  
CARROLLTON FAIR 48 31 50 W3 30.10R  
AMERICUS FAIR 57 21 24 W10G16 30.06R  
CORDELE FAIR 65 25 22 W12 30.04S  

 
 
GAZ099>101-110>166-240000-  
SOUTH GEORGIA  
 
CITY SKY/WX TMP DP RH WIND PRES REMARKS
 
SAVANNAH MOCLDY 66 28 24 W14 29.97R  
VALDOSTA FAIR 60 33 36 W3 30.04R  
ALMA FAIR 63 30 28 W5 30.01R  
ST SIMONS FAIR 68 40 35 W10 29.98R  
FT STEWART FAIR 65 25 22 W13 29.97R  
ALBANY FAIR 62 29 28 W7 30.07R  
HUNTER AFB FAIR 65 34 31 W10 29.94R  
MOODY AFB FAIR 64 28 26 W9 30.02R  
BRUNSWICK FAIR 68 32 26 W9 30.00R  
 
 
CITY SKY/WX TMP DP RH WIND PRES REMARKS
 
BAINBRIDGE FAIR 63 37 39 W5 30.06R  
MOULTRIE FAIR 61 32 33 W5 30.05S  
VIDALIA FAIR 63 32 31 W6 30.01R  
WAYCROSS FAIR 64 22 20 W5 30.02R  
DOUGLAS FAIR 61 30 31 W5 30.04R  
TIFTON FAIR 62 32 32 W6 30.04R  
HAZELHURST FAIR 63 10 12 CALM 30.01R  

 
 
 
CLICK HERE TO GO TO PREVIOUS BULLETINS.

The Nexlab GA Page Main Text Page